Location: Sternwarte ZA, Rosenfeld-Brittheim
(48.2889°N, 8.6789°E)
Time: 02:20:03
(UTC+02:00)

ISS - Pass Details

Date: 05 July 2020
Orbit: 417 x 421 km, 51.6° (Epoch: 08 July)

Event Time Altitude Azimuth Distance (km) Brightness Sun altitude
Exits shadow 04:09:50 11° 254° (WSW) 1,427 -1.5 -10.5°
Maximum altitude 04:13:02 77° 340° (NNW) 434 -3.6 -10.1°
Drops below altitude 10° 04:16:23 10° 67° (ENE) 1,499 0.1 -9.8°
Sets 04:18:30 0° 69° (ENE) 2,364 1.2 -9.6°
